Location: Ailingen
(47.6833°N, 9.5000°E)
Time: 08:23:11
(UTC+00:00)

Cosmos 1190 Rocket - Pass Details

Date: 18 November 2025
Orbit: 752 x 775 km, 74.1° (Epoch: 13 December)

Event Time Altitude Azimuth Distance (km) Brightness Sun altitude
Rises 17:54:05 0° 211° (SSW) 3,241 7.7 -22.0°
Reaches altitude 10° 17:56:29 10° 215° (SW) 2,319 7.0 -22.4°
Maximum altitude 18:01:42 62° 296° (WNW) 875 4.4 -23.3°
Enters shadow 18:05:26 19° 12° (NNE) 1,770 5.7 -23.9°
